SCP
0 0 0 0 0 0 0 0 0 0 0 0 0 0 0 0 0 0 0 0 0 0 0 0 0 0 1 1 1 1 1 1 1 1 1 0 0 0 0 0 0 0 0 0
0 0 0 0 0 0 0 0 0 0 0 0 0 0 0 0 0 0 0 0 0 0 0 0 0 1 1 1 1 1 1 1 1 1 1 0 0 0 0 0 0 0 0 0
0 0 0 0 0 0 0 0 0 0 0 0 0 0 0 0 0 0 0 0 0 0 0 0 0 0 0 1 1 1 1 1 1 1 1 1 1 0 0 0 0 0 0 0
0 0 0 0 0 0 0 0 0 0 0 0 0 0 0 0 0 0 0 0 0 0 0 0 0 0 0 0 0 0 0 0 0 0 0 0 0 0 0 0 0 0 0 0
0 0 0 0 0 0 0 0 0 0 0 0 0 0 0 0 0 0 0 0 0 0 0 0 0 0 0 0 0 0 0 0 0 0 0 0 0 0 0 0 0 0 0 0
0 0 0 0 0 0 0 0 0 0 0 0 0 0 0 0 0 0 0 0 -0 0 0 0 0 0 0 0 0 0 0 0 0 0 0 0 0 0 0 0 0 0 0 0
0 0 0 0 0 0 0 0 0 0 0 0 0 0 0 0 0 0 0 0 0 0 0 0 0 0 0 0 0 0 0 0 0 0 0 0 0 0 0 0 0 0 0 0
0 0 0 0 0 0 0 0 0 0 0 0 0 0 0 0 0 0 0 0 0 0 0 0 0 0 0 0 0 0 0 0 0 0 0 0 0 0 0 0 0 0 0 0
0 0 0 0 0 0 0 0 0 0 0 0 0 0 0 0 0 0 0 0 0 0 0 0 0 0 0 0 0 0 0 0 0 0 0 0 0 0 0 0 0 0 0 0
0 0 0 0 0 0 0 0 0 0 0 0 0 0 0 0 0 0 0 0 0 0 0 0 0 0 0 0 0 0 0 0 0 0 0 0 0 0 0 0 0 0 0 0
0 0 0 0 0 0 0 0 0 0 0 0 0 0 0 0 0 0 0 0 0 0 0 0 0 0 0 0 0 0 0 0 0 0 0 0 0 0 0 0 0 0 0 0
0 0 0 0 0 0 0 0 0 0 0 0 0 0 0 0 0 0 0 0 0 0 0 0 0 0 0 0 0 0 0 0 0 0 0 0 0 0 0 0 0 0 0 0
0 0 0 0 0 0 0 0 0 0 0 0 0 0 0 0 0 0 0 0 0 0 0 0 0 0 0 0 0 0 0 0 0 0 0 0 0 0 0 0 0 0 0 0
0 0 0 0 0 0 0 0 0 0 0 0 0 0 0 0 0 0 0 0 0 0 0 0 0 0 0 0 0 0 0 0 0 0 0 0 0 0 0 0 0 0 0 0
0 0 0 0 0 0 0 0 0 0 0 0 0 0 0 0 0 0 0 0 0 0 0 0 0 0 0 0 0 0 0 0 0 0 0 0 0 0 0 0 0 0 0 0
0 0 0 0 0 0 0 0 0 0 0 0 0 0 0 0 0 0 0 0 0 0 0 0 0 0 0 0 0 0 0 0 0 0 0 0 0 0 0 0 0 0 0 0
0 0 0 0 0 0 0 0 0 0 0 0 0 0 0 0 0 0 0 0 0 0 0 0 0 0 0 0 0 0 0 0 0 0 0 0 0 0 0 0 0 0 0 0
0 0 0 0 0 0 0 0 0 0 0 0 0 0 0 0 0 0 0 0 0 0 0 0 0 0 0 0 0 0 0 0 0 0 0 0 0 0 0 0 0 0 0 0
0 0 0 0 0 0 0 0 0 0 0 0 0 0 0 0 0 0 0 0 0 0 0 0 0 0 0 0 0 0 0 0 0 0 0 0 0 0 0 0 0 0 0 0
0 0 0 0 0 0 0 0 0 0 0 0 0 0 0 0 0 0 0 0 0 0 0 0 0 0 0 0 0 0 0 0 0 0 0 0 0 0 0 0 0 0 0 0
0 0 0 0 0 0 0 0 0 0 0 0 0 0 0 0 0 0 0 0 0 0 0 0 0 0 0 0 0 0 0 0 0 0 0 0 0 0 0 0 0 0 0 0
0 0 0 0 0 0 0 0 0 0 0 0 0 0 0 0 0 0 0 0 0 0 0 0 0 0 0 0 0 0 0 0 0 0 0 0 0 0 0 0 0 0 0 0
0 0 0 0 0 0 0 0 0 0 0 0 0 0 0 0 0 0 0 0 0 0 0 0 0 0 0 0 0 0 0 0 0 0 0 0 0 0 0 0 0 0 0 0
0 0 0 0 0 0 0 0 0 0 0 0 0 0 0 0 0 0 0 0 0 0 0 0 0 0 0 0 0 0 0 0 0 0 0 0 0 0 0 0 0 0 0 0
0 0 0 0 0 0 0 0 0 0 0 0 0 0 0 0 0 0 0 0 0 0 0 0 0 0 0 0 0 0 0 0 0 0 0 0 0 0 0 0 0 0 0 0
0 0 0 0 0 0 0 0 0 0 0 0 0 0 0 0 0 0 0 0 0 0 0 0 0 0 0 0 0 0 0 0 0 0 0 0 0 0 0 0 0 0 0 0
0 0 0 0 0 0 0 0 0 0 0 0 0 0 0 0 0 0 0 0 0 0 0 0 0 0 0 0 0 0 0 0 0 0 0 0 0 0 0 0 0 0 0 0
Wind_Speed
4 8 12 14 16 16 14 10 7 5 5 11 16 17 17 16 14 13 11 8 3 0 2 4 5 4 3 2 2 3 4 4 5 5 5 5 6 5 5 5 6 6 5 5
3 6 12 16 19 17 12 10 8 8 6 13 17 16 18 17 14 14 14 14 14 14 13 12 10 8 7 6 4 3 1 3 4 4 4 4 6 6 6 5 5 4 4 4
4 3 2 12 13 12 9 9 8 9 10 17 20 21 17 16 15 13 12 12 14 13 12 12 11 11 12 9 8 8 7 5 4 2 1 2 2 2 3 3 3 4 4 5
2 5 7 2 4 6 6 6 9 10 12 14 16 17 8 11 14 11 9 9 9 8 8 7 7 7 7 7 7 8 7 8 8 7 6 5 4 4 4 2 1 2 3 3
3 4 2 3 5 6 4 3 8 11 14 16 18 11 3 13 17 10 5 4 5 5 6 7 7 6 7 7 6 6 6 6 6 6 6 6 6 5 4 3 3 2 2 1
4 3 1 3 6 3 2 1 6 8 11 14 15 10 9 17 18 11 5 4 5 6 6 7 6 6 8 7 7 6 5 5 5 5 5 5 5 4 4 3 3 3 4 3
4 2 1 3 6 3 2 4 9 7 8 9 6 5 13 17 15 9 3 4 5 6 4 3 4 6 7 6 5 4 4 4 4 4 4 4 4 4 4 4 5 5 5 4
3 3 4 4 3 2 3 4 6 7 7 8 9 11 13 14 13 9 3 2 3 4 3 2 2 4 4 4 3 3 4 4 3 4 4 4 5 5 5 5 5 5 5 5
3 4 4 1 2 3 4 4 5 5 8 8 9 10 12 12 11 7 2 1 1 2 3 3 2 1 2 3 2 3 4 3 2 3 4 4 5 5 5 5 4 4 4 4
1 1 1 3 4 4 5 6 8 9 9 8 7 10 11 10 9 7 3 1 1 0 2 4 3 2 2 1 1 3 3 1 1 1 2 3 3 3 3 4 4 4 5 5
2 2 0 3 4 5 6 8 9 8 7 7 7 8 7 7 8 7 5 3 1 1 2 3 2 2 2 1 3 3 2 1 1 1 1 2 2 3 3 2 3 3 3 4
6 6 5 4 5 5 4 5 6 6 7 7 5 7 8 8 6 6 6 4 3 4 4 3 1 3 4 2 4 4 3 1 1 2 2 2 1 1 2 1 3 4 4 5
7 7 6 4 3 3 2 3 3 4 6 7 7 7 8 7 6 7 7 5 5 6 7 6 4 4 6 5 4 4 4 3 1 1 2 2 1 1 1 1 1 2 3 5
6 6 3 1 1 3 3 4 4 5 6 6 6 7 8 7 7 8 9 8 7 6 7 7 6 6 6 5 4 4 4 3 2 1 1 1 1 1 1 1 1 1 2 4
7 7 5 3 1 3 4 4 5 6 6 6 6 7 9 9 9 9 9 9 8 6 5 5 6 7 5 5 5 5 4 3 2 1 1 0 1 1 2 2 1 1 2 4
8 6 6 4 2 3 4 4 4 5 6 6 6 7 9 8 8 8 8 8 9 9 7 6 7 6 4 6 6 5 4 6 4 1 0 1 1 1 2 2 3 3 3 3
10 7 6 4 1 1 2 4 4 5 5 6 6 6 7 8 9 9 10 10 8 8 7 5 6 5 5 7 7 5 4 4 4 2 2 2 2 1 1 2 2 2 2 3
10 9 8 6 4 3 3 4 4 5 5 6 6 6 7 9 10 11 11 10 9 8 8 8 8 5 5 6 5 4 4 4 3 3 2 2 2 2 2 3 2 2 2 3
8 9 8 6 5 4 3 4 5 6 6 6 4 5 6 7 8 9 9 9 8 9 12 13 15 3 4 5 6 4 4 4 3 2 2 3 3 3 3 3 2 2 2 3
9 9 8 5 4 4 4 4 4 5 5 4 4 5 6 7 7 7 8 6 5 6 9 12 9 3 2 5 6 4 5 5 4 3 2 3 3 3 3 3 2 2 2 2
10 9 7 6 5 4 4 4 4 4 5 4 4 5 6 7 7 6 6 6 7 9 10 12 7 4 2 3 5 4 5 4 4 4 3 3 3 3 3 3 3 2 2 2
9 9 8 7 6 5 4 4 4 4 4 4 4 5 6 7 7 6 5 5 7 12 9 6 6 7 4 5 4 4 5 4 3 3 3 4 4 4 3 3 3 2 2 2
8 8 7 7 7 6 4 3 3 3 3 3 4 4 5 5 5 4 6 6 6 12 9 6 10 14 5 4 4 4 5 4 4 3 3 4 4 4 4 4 3 2 2 3
8 7 7 7 6 5 5 4 4 4 4 4 4 4 4 4 5 5 6 10 12 12 7 10 14 11 4 3 3 4 4 4 4 3 3 4 4 5 4 4 3 2 2 4
8 7 7 6 6 5 6 5 4 4 4 3 5 6 5 4 5 6 7 8 11 11 7 10 14 7 3 3 4 4 4 4 4 4 4 5 5 4 4 4 4 3 3 3
8 7 6 7 6 5 5 4 4 3 3 3 4 4 5 5 6 6 6 8 9 10 7 6 6 3 3 3 3 4 5 5 5 5 5 5 5 5 4 4 5 4 4 4
7 5 5 4 4 5 5 4 4 4 5 5 5 5 5 5 5 6 7 6 6 6 5 5 4 3 3 3 3 4 4 5 5 5 5 5 5 5 5 5 4 4 4 5
Wind_Direction
68 77 71 42 22 28 42 45 55 33 9 356 346 339 335 337 342 355 10 25 43 223 283 303 298 264 204 159 128 161 169 180 207 230 245 246 242 236 241 235 229 226 222 223
76 101 80 45 22 16 22 27 28 19 5 344 339 344 351 359 11 23 31 36 41 46 48 42 37 39 52 52 47 69 159 212 222 227 243 252 249 237 231 235 236 230 227 222
6 350 65 31 2 358 3 22 20 14 343 336 343 343 346 3 13 25 33 38 43 46 49 47 44 49 52 44 43 51 47 32 11 346 342 323 290 269 260 256 249 237 222 209
37 38 59 314 282 325 346 33 21 353 340 341 338 321 316 10 6 4 22 37 42 47 54 58 61 60 60 51 51 53 49 45 42 46 45 37 40 32 6 350 300 250 242 224
75 73 70 339 343 340 338 2 9 346 340 341 339 332 341 358 354 340 356 37 50 56 64 64 61 62 64 55 54 55 50 47 44 49 47 39 35 25 13 20 21 357 318 319
68 79 57 308 313 326 211 328 347 336 333 339 346 5 335 332 334 330 357 39 47 45 47 48 44 50 50 39 39 36 35 44 50 54 53 41 28 18 8 13 17 28 39 40
48 63 282 277 310 354 34 305 311 309 312 324 329 282 293 311 323 327 350 46 54 51 45 39 45 55 46 30 17 9 30 48 50 47 48 36 27 23 22 25 31 33 35 25
44 27 288 294 13 48 256 269 285 294 296 302 304 302 311 322 328 327 327 44 54 47 23 8 38 58 42 11 347 27 52 59 49 37 34 36 39 32 30 34 37 26 22 13
184 217 245 219 210 239 244 274 281 285 289 295 307 312 319 324 325 320 268 230 56 28 341 342 358 28 17 334 350 71 70 65 37 39 42 44 50 44 35 29 30 20 20 14
142 276 249 202 239 262 270 272 280 284 287 291 294 301 311 319 329 332 303 274 34 25 322 334 331 287 282 330 84 101 91 105 6 22 26 32 40 43 46 29 21 20 18 6
166 226 179 249 269 274 280 287 291 295 291 287 288 297 306 321 331 337 319 294 287 213 270 316 331 265 269 60 101 118 126 186 269 302 313 342 33 45 41 37 16 11 1 348
199 202 184 249 277 284 289 302 308 318 323 324 320 321 326 326 329 337 335 317 293 268 265 279 285 240 245 204 142 146 167 213 264 285 299 305 308 31 53 30 358 358 351 351
171 179 184 221 286 318 314 328 336 343 342 340 344 346 343 333 329 336 338 336 299 267 257 257 253 235 230 220 179 160 175 203 241 291 313 328 330 280 295 328 299 337 2 3
162 146 151 175 295 328 339 355 358 348 341 341 341 344 342 337 334 339 332 321 309 282 258 250 252 250 229 211 192 169 168 187 193 238 299 359 23 56 81 65 25 341 316 319
171 161 171 176 47 10 356 360 5 347 335 338 342 347 345 341 335 331 328 325 330 320 283 255 250 256 225 192 181 167 164 179 194 234 313 59 107 82 58 47 40 12 351 340
172 163 154 135 75 12 356 350 341 331 331 331 339 343 341 334 328 327 330 334 340 331 310 280 260 257 206 175 163 159 170 178 166 162 71 103 125 80 66 67 58 42 20 349
153 164 159 159 169 316 320 318 311 310 317 322 322 328 337 340 343 346 341 334 326 317 315 304 285 274 195 172 162 165 170 171 158 124 121 125 138 145 121 103 77 41 9 7
164 165 164 167 185 225 286 309 314 313 303 304 315 331 345 349 345 340 334 331 334 341 343 335 319 286 189 171 161 161 163 158 153 148 134 119 126 138 140 126 102 52 27 46
155 159 167 179 193 204 234 268 291 301 305 312 323 327 330 335 332 331 334 339 352 355 342 335 332 323 176 172 153 151 157 159 155 149 144 129 119 121 131 134 126 95 75 72
158 161 167 185 205 206 227 258 282 298 307 311 316 325 329 332 331 334 338 337 335 324 322 332 341 348 160 157 144 142 148 152 155 154 145 130 126 124 128 138 143 130 113 105
162 164 172 191 212 219 228 253 267 284 297 305 310 316 316 317 321 328 337 329 319 322 327 331 337 326 224 159 138 134 139 145 151 156 154 146 141 140 136 136 140 140 132 121
166 169 181 197 204 214 234 242 254 271 281 300 307 311 314 314 315 316 308 285 298 317 323 314 315 311 263 169 141 140 142 143 146 151 155 157 153 152 151 148 149 144 133 123
171 175 187 198 201 206 215 232 249 237 245 268 281 293 297 296 297 305 311 301 304 312 315 302 304 314 251 167 155 150 149 149 151 155 162 164 159 155 153 155 157 151 136 124
176 183 196 199 190 186 206 232 234 232 239 248 262 278 286 295 297 279 272 295 306 309 304 299 306 308 208 170 164 157 158 159 157 154 148 144 144 146 149 151 150 146 133 128
181 187 191 186 188 204 215 218 219 231 235 253 278 286 280 262 267 286 296 300 307 312 307 305 310 303 183 167 178 173 170 170 163 157 154 154 156 156 158 159 158 151 133 126
180 187 193 196 198 202 203 199 204 212 210 241 269 275 278 282 285 291 295 299 304 311 313 310 305 280 183 179 187 180 171 165 160 159 162 162 165 163 166 170 159 147 140 134
184 187 194 211 218 204 194 195 205 212 208 215 242 261 271 285 296 299 302 303 308 316 319 318 306 275 223 197 184 177 170 165 164 163 164 164 166 168 170 169 164 155 147 144